Location: Seattle
(47.6064°N, 122.3308°W)
Time: 15:00:47
(UTC-08:00)

SR - Pass Details

Date: 28 November 2020
Orbit: 575 x 880 km, 66.7° (Epoch: 24 January)

Event Time Altitude Azimuth Distance (km) Brightness Sun altitude
Rises 18:57:02 0° 218° (SW) 2,803 ? -25.6°
Reaches altitude 10° 18:59:12 10° 220° (SW) 1,929 ? -25.9°
Enters shadow 19:02:56 64° 248° (WSW) 689 ? -26.6°
